#timestamp,LO_Frequency,Hit,StdDev 
1570201215.3,286047003.0,N
1570201235.1,286047004.9,N
1570201255.9,286047002.9,N
1570201275.7,286047003.6,N
1570201295.5,286047004.4,N
1570201315.4,286047001.3,N
1570201335.2,286047005.9,N
1570201355.1,286047007.3,Y
1570201356.0,286047007.3,P
1570201375.8,286047001.8,N
1570201395.6,286047004.2,N
1570201415.5,286047001.5,N
1570201435.3,286047003.2,N
1570201455.1,286047003.8,N
1570201475.9,286047001.6,N
1570201495.7,286047002.6,N
1570201515.6,286047000.7,N
1570201535.4,286047000.0,N
1570201555.2,286046999.7,N
1570201575.1,286047005.9,N
1570201576.0,286047005.9,N
1570201595.8,286047005.2,N
1570201615.6,286047004.0,N
1570201635.5,286047001.7,N
1570201655.3,286047001.6,N
1570201675.2,286047003.5,N
1570201695.9,286047001.1,N
1570201715.7,286046999.0,N
1570201735.6,286046999.6,N
1570201755.4,286046999.0,N
1570201775.3,286046996.5,N
1570201795.1,286046999.2,N
1570201796.0,286046999.2,N
1570201815.8,286046997.1,N
1570201835.7,286046997.2,N
1570201855.5,286046999.6,N
1570201875.3,286047000.7,N
1570201895.2,286047003.6,N
1570201915.0,286047004.4,N
1570201915.9,286047004.4,N
1570201935.8,286047001.4,N
1570201955.6,286047003.9,N
1570201975.4,286047002.7,N
1570201995.3,286047003.5,N
1570202015.1,286047004.4,N
1570202035.8,286047003.8,N
1570202055.7,286047003.6,N
1570202075.5,286047003.1,N
1570202095.4,286047003.9,N
1570202115.2,286047003.8,N
1570202135.0,286047001.9,N
1570202135.9,286047001.9,N
1570202155.8,286046999.7,N
1570202175.6,286047005.8,N
1570202195.4,286047005.5,N
1570202215.3,286047004.3,N
1570202235.1,286047006.0,N
1570202255.9,286047002.9,N
1570202275.7,286047007.1,N
1570202295.5,286047008.9,Y
1570202315.4,286047003.7,P
1570202335.2,286047002.4,P
1570202355.1,286047003.7,P
1570202356.0,286047003.7,Y
1570202375.8,286046999.8,P
1570202395.6,286047004.4,N
1570202415.5,286047005.8,N
1570202435.3,286047006.9,Y
1570202455.2,286047004.4,P
1570202475.9,286047004.2,P
1570202495.7,286047004.2,P
1570202515.6,286047004.2,Y
1570202535.4,286047002.4,P
1570202555.2,286047001.8,N
1570202575.1,286047002.7,N
1570202576.0,286047002.7,Y
1570202595.8,286046995.6,P
1570202615.7,286046999.3,N
1570202635.5,286046999.4,N
1570202655.3,286047000.8,N
1570202675.2,286046999.8,N
1570202695.0,286047000.0,N
1570202695.9,286047000.0,N
1570202715.8,286046996.6,N
1570202735.6,286046995.0,N
1570202755.4,286046997.8,N
1570202775.3,286046993.4,N
1570202795.1,286046994.8,N
1570202815.9,286046996.2,N
1570202835.7,286046991.9,Y
1570202855.5,286046996.4,P
1570202875.4,286046995.2,P
1570202895.2,286046997.9,N
1570202915.1,286046993.8,Y
1570202916.0,286046993.8,P
1570202935.8,286047000.4,N
1570202955.6,286047000.6,N
1570202975.5,286047001.2,N
1570202995.3,286047000.3,N
1570203015.1,286047001.2,N
1570203035.9,286047000.3,N
1570203055.7,286047000.6,N
1570203075.6,286047000.7,N
1570203095.4,286046998.9,N
1570203115.2,286046996.9,N
1570203135.1,286047000.9,N
1570203136.0,286047000.9,N
1570203155.8,286046998.7,N
1570203175.6,286047001.2,N
1570203195.5,286047000.0,N
1570203215.3,286047000.6,N
1570203235.2,286047002.1,N
1570203255.9,286047002.6,N
1570203275.7,286047001.9,N
1570203295.6,286047002.2,N
1570203315.4,286047003.3,N
1570203335.2,286047007.2,Y
1570203355.1,286047006.7,P
1570203356.0,286047006.7,N
1570203375.8,286047007.5,N
1570203395.7,286047004.7,N
1570203415.5,286047007.3,N
1570203435.3,286047008.5,Y
1570203455.2,286047000.1,P
1570203475.0,286046999.9,N
1570203475.9,286046999.9,N
1570203495.8,286047002.4,N
1570203515.6,286047000.1,N
1570203535.4,286046999.9,N
1570203555.3,286046999.1,N
1570203575.1,286047001.1,N
1570203595.9,286046997.7,N
1570203615.7,286046995.0,N
1570203635.5,286046995.4,N
1570203655.4,286046996.1,N
1570203675.2,286046996.1,N
1570203695.0,286046993.5,N
1570203695.9,286046993.5,N
1570203715.8,286046997.5,N
1570203735.6,286046997.5,N
1570203755.5,286046996.5,N
1570203775.3,286046997.6,N
1570203795.1,286046995.5,N
1570203815.9,286046997.5,N
1570203835.7,286046997.1,N
1570203855.5,286046991.8,N
1570203875.4,286046997.2,N
1570203895.2,286046997.1,N
1570203915.1,286046995.2,N
1570203916.0,286046995.2,N
1570203935.8,286046993.8,N
1570203955.6,286046997.9,N
1570203975.5,286046995.5,N
1570203995.3,286046996.3,N
1570204015.1,286046995.4,N
1570204035.9,286046996.0,N
1570204055.7,286046995.7,N
1570204075.6,286046995.5,N
1570204095.4,286046997.7,N
1570204115.2,286046996.5,N
1570204135.1,286046998.7,N
1570204136.0,286046998.7,N
1570204155.8,286046999.5,N
1570204175.6,286046999.4,N
1570204195.5,286046998.5,N
1570204215.3,286047000.4,N
1570204235.2,286046999.8,N
1570204255.9,286047000.4,N
1570204275.7,286047001.2,N
1570204295.6,286046999.5,N
1570204315.4,286046998.5,N
1570204335.2,286047001.6,N
1570204355.1,286047000.2,N
1570204356.0,286047000.2,N
1570204375.8,286047000.1,N
1570204395.7,286047002.8,N
1570204415.5,286047001.0,N
1570204435.3,286046998.9,N
1570204455.2,286046998.9,N
1570204475.0,286046998.2,N
1570204475.9,286046998.2,N
1570204495.8,286047000.2,N
1570204515.6,286046998.3,N
1570204535.4,286046998.3,N
1570204555.3,286046999.2,N
1570204575.1,286046998.9,N
1570204595.8,286046998.6,N
1570204615.7,286046998.4,N
1570204635.5,286046999.2,N
1570204655.4,286047000.8,N
1570204675.2,286046999.3,N
1570204695.0,286046998.6,N
1570204695.9,286046998.6,N
1570204715.8,286047000.7,N
1570204735.6,286046998.4,N
1570204755.4,286047000.5,N
1570204775.3,286046998.3,N
1570204795.1,286047001.2,N
